Regional Weather Roundup
Issued by NWS

Home | Current Version | Previous Version | Graphics & Text | Print | Product List | Glossary On
Versions: 1 2 3 4 5 6 7 8 9 10 11 12 13 14 15 16 17 18 19 20 21 22 23 24 25 26 27 28 29 30 31 32 33 34 35 36 37 38 39 40 41 42 43 44 45 46 47 48 49 50
000
ASUS43 KTOP 180908
RWRKS

WEATHER ROUNDUP FOR KANSAS
NATIONAL WEATHER SERVICE GOODLAND KS
400 AM CDT FRI AUG 18 2017

NOTE:  "FAIR" INDICATES FEW OR NO CLOUDS BELOW 12,000 FEET WITH NO
SIGNIFICANT WEATHER AND/OR OBSTRUCTIONS TO VISIBILITY.

KSZ001>006-013>018-027>032-041>047-181000-
NORTHWEST KANSAS

CITY           SKY/WX    TMP DP  RH WIND       PRES   REMARKS
GOODLAND       CLEAR     61  55  81 S13       30.02F
HAYS           CLEAR     63  59  87 S8        29.96S
HILL CITY      CLEAR     65  58  78 SW5       29.96S
RUSSELL        CLEAR     64  60  87 S12       29.93R
$$

KSZ061>065-074>080-084>089-181000-
SOUTHWEST KANSAS

CITY           SKY/WX    TMP DP  RH WIND       PRES   REMARKS
DODGE CITY     CLOUDY    67  57  70 S6        30.03R
ELKHART          N/A     63  60  90 S10         N/A
GARDEN CITY    CLOUDY    66  61  84 S9        30.03F
GREAT BEND     PTCLDY    63  61  93 W5        29.98R
LIBERAL        TSTM      62  59  90 SE18      30.10F
PRATT          CLOUDY    65  58  76 S3        30.00F
$$

KSZ066>073-081>083-090>101-181000-
SOUTHEAST KANSAS

CITY           SKY/WX    TMP DP  RH WIND       PRES   REMARKS
CHANUTE        MOCLDY    66  63  90 S5        29.98F
COFFEYVILLE    CLOUDY    66  65  96 CALM      29.99S
HUTCHINSON     PTCLDY    67  64  90 E3        29.95F
MEDICINE LODGE   N/A     70  59  68 CALM      29.99S
NEWTON         MOCLDY    68  64  87 W8        29.98F
PARSONS        CLOUDY    65  63  93 CALM      30.00S
WICHITA INTL   CLOUDY    70  65  84 NE8       29.98F
WICHITA JABRA  CLOUDY    71  63  75 NW8       29.98F
WICHITA MCCONL CLOUDY    71  62  73 N3        29.98F
WINFIELD       CLOUDY    69  63  81 S7        29.99F
$$

KSZ007>012-019>026-033>040-048>060-102>105-181000-
NORTHEAST KANSAS

CITY           SKY/WX    TMP DP  RH WIND       PRES   REMARKS
CONCORDIA      CLOUDY    71  62  73 CALM      29.93R
EMPORIA        CLOUDY    70  60  70 SW9       29.98R
LAWRENCE       MOCLDY    62  62 100 CALM      29.95F
MANHATTAN      CLOUDY    70  64  81 SW12      29.93F
MARYSVILLE     CLOUDY    68  61  77 SW7       29.93F
OLATHE IND     PTCLDY    64  60  87 S3        29.96F
OLATHE EXE     PTCLDY    66  61  84 SW5       29.96F
SALINA         CLOUDY    72  62  71 S12G22    29.88F
TOPEKA BILLARD CLOUDY    64  62  93 CALM      29.94F
TOPEKA FORBES  CLOUDY    67  62  84 S5        29.95F
$$




USA.gov is the U.S. government's official web portal to all federal, state and local government web resources and services.